Kearney, NE

6:00 PM CST on November 18, 2017 (GMT -0600)
Kearney Municipal

Weather History for KEAR - February, 2013

Change the Weather History Date:

Monday, February 18, 2013

  Actual Average Record
Temperature  
Mean Temperature 33 °F 29 °F  
Max Temperature 45 °F 40 °F 79 °F (1930)
Min Temperature 21 °F 17 °F -15 °F (1978)
Degree Days  
Heating Degree Days 32 36  
Month to date heating degree days 687  
Cooling Degree Days 0 0  
Month to date cooling degree days 0  
Moisture  
Dew Point 20 °F    
Average Humidity 56    
Maximum Humidity 71    
Minimum Humidity 40    
Precipitation  
Precipitation 0.00 in - 0.59 in (1962)
Sea Level Pressure  
Sea Level Pressure 29.84 in    
Wind  
Wind Speed 22 mph (NNW)    
Max Wind Speed 36 mph    
Max Gust Speed 45 mph    
Visibility 10 miles    
Events      
T = Trace of Precipitation, MM = Missing Value Source: NWS Daily Summary

Daily Weather History Graph

Daily Weather History Graph

Search for Another Location

Airport or City:

Trip Planner

Search our weather history database for the weather conditions in past years. The results will help you decide how hot, cold, wet, or windy it might be!

Date:

Astronomy

Feb. 18, 2013 Rise Set
Actual Time 7:25 AM CST 6:14 PM CST
Civil Twilight 6:57 AM CST 6:42 PM CST
Nautical Twilight 6:25 AM CST 7:14 PM CST
Astronomical Twilight 5:54 AM CST 7:46 PM CST
Moon 12:00 PM CST (2/18) 2:07 AM CST (2/18)
Length of Visible Light 11h 45m
Length of Day
10h 49m
First Quarter, 58% of the Moon is Illuminated
Feb 18
First Quarter
Feb 25
Full
Mar 4
Last Quarter
Mar 11
New
Mar 19
First Quarter

Hourly Weather History & Observations

Time (CST) Temp. Windchill Dew Point Humidity Pressure Visibility Wind Dir Wind Speed Gust Speed Precip Events Conditions
12:15 AM 42.8 °F 33.1 °F 26.6 °F 53% 29.58 in 10.0 mi North 25.3 mph 31.1 mph N/A   Clear
12:35 AM 42.8 °F 32.9 °F 28.4 °F 57% 29.57 in 10.0 mi North 26.5 mph 31.1 mph N/A   Clear
12:55 AM 42.8 °F 32.5 °F 28.4 °F 57% 29.56 in 10.0 mi North 28.8 mph 35.7 mph N/A   Clear
1:15 AM 42.8 °F 32.5 °F 28.4 °F 57% 29.57 in 10.0 mi North 28.8 mph 35.7 mph N/A   Clear
1:35 AM 41.0 °F 30.0 °F 28.4 °F 61% 29.56 in 10.0 mi North 28.8 mph 35.7 mph N/A   Clear
1:55 AM 41.0 °F 30.2 °F 28.4 °F 61% 29.56 in 10.0 mi North 27.6 mph 33.4 mph N/A   Clear
2:15 AM 41.0 °F 30.5 °F 28.4 °F 61% 29.58 in 10.0 mi North 26.5 mph 33.4 mph N/A   Clear
2:35 AM 41.0 °F 30.2 °F 28.4 °F 61% 29.58 in 10.0 mi North 27.6 mph 35.7 mph N/A   Clear
2:55 AM 39.2 °F 28.0 °F 28.4 °F 65% 29.59 in 10.0 mi North 26.5 mph 35.7 mph N/A   Clear
3:15 AM 39.2 °F 28.7 °F 28.4 °F 65% 29.60 in 10.0 mi North 23.0 mph 34.5 mph N/A   Clear
3:35 AM 39.2 °F 28.5 °F 28.4 °F 65% 29.61 in 10.0 mi North 24.2 mph 29.9 mph N/A   Clear
3:55 AM 39.2 °F 28.7 °F 26.6 °F 61% 29.61 in 10.0 mi NNW 23.0 mph 26.5 mph N/A   Clear
4:15 AM 39.2 °F 28.7 °F 26.6 °F 61% 29.61 in 10.0 mi NNW 23.0 mph 32.2 mph N/A   Clear
4:35 AM 37.4 °F 26.9 °F 26.6 °F 65% 29.62 in 10.0 mi NNW 20.7 mph 29.9 mph N/A   Clear
4:55 AM 37.4 °F 26.9 °F 26.6 °F 65% 29.64 in 10.0 mi NNW 20.7 mph 29.9 mph N/A   Partly Cloudy
5:15 AM 37.4 °F 25.2 °F 26.6 °F 65% 29.65 in 10.0 mi NNW 28.8 mph 34.5 mph N/A   Mostly Cloudy
5:35 AM 37.4 °F 26.1 °F 26.6 °F 65% 29.66 in 10.0 mi NNW 24.2 mph 32.2 mph N/A   Overcast
5:55 AM 37.4 °F 25.4 °F 26.6 °F 65% 29.67 in 10.0 mi NNW 27.6 mph 33.4 mph N/A   Overcast
6:15 AM 35.6 °F 24.2 °F 26.6 °F 70% 29.69 in 10.0 mi NNW 21.9 mph 32.2 mph N/A   Overcast
6:35 AM 35.6 °F 23.0 °F 24.8 °F 65% 29.69 in 10.0 mi NNW 27.6 mph - N/A   Overcast
6:55 AM 35.6 °F 23.0 °F 24.8 °F 65% 29.70 in 10.0 mi NNW 27.6 mph - N/A   Overcast
7:15 AM 35.6 °F 23.4 °F 24.8 °F 65% 29.72 in 10.0 mi NNW 25.3 mph 38.0 mph N/A   Overcast
7:35 AM 35.6 °F 23.4 °F 24.8 °F 65% 29.73 in 10.0 mi NNW 25.3 mph 36.8 mph N/A   Mostly Cloudy
7:55 AM 35.6 °F 24.0 °F 24.8 °F 65% 29.74 in 10.0 mi NNW 23.0 mph 33.4 mph N/A   Mostly Cloudy
8:15 AM 35.6 °F 24.0 °F 24.8 °F 65% 29.74 in 10.0 mi NNW 23.0 mph 35.7 mph N/A   Overcast
8:35 AM 37.4 °F 25.0 °F 21.2 °F 52% 29.75 in 10.0 mi NNW 29.9 mph 42.6 mph N/A   Mostly Cloudy
8:55 AM 37.4 °F 24.0 °F 21.2 °F 52% 29.76 in 10.0 mi NNW 35.7 mph 44.9 mph N/A   Mostly Cloudy
9:15 AM 37.4 °F 24.2 °F 21.2 °F 52% 29.78 in 10.0 mi NW 34.5 mph 46.0 mph N/A   Overcast
9:35 AM 37.4 °F 24.2 °F 21.2 °F 52% 29.79 in 10.0 mi NNW 34.5 mph 41.4 mph N/A   Overcast
9:55 AM 37.4 °F 25.0 °F 21.2 °F 52% 29.80 in 10.0 mi NNW 29.9 mph 41.4 mph N/A   Overcast
10:15 AM 37.4 °F 25.6 °F 21.2 °F 52% 29.81 in 10.0 mi NW 26.5 mph 38.0 mph N/A   Overcast
10:35 AM 37.4 °F 24.8 °F 21.2 °F 52% 29.83 in 10.0 mi NW 31.1 mph 39.1 mph N/A   Overcast
10:55 AM 37.4 °F 25.2 °F 21.2 °F 52% 29.84 in 10.0 mi NNW 28.8 mph 35.7 mph N/A   Overcast
11:15 AM 37.4 °F 25.6 °F 21.2 °F 52% 29.85 in 10.0 mi NNW 26.5 mph 33.4 mph N/A   Overcast
11:35 AM 37.4 °F 25.9 °F 19.4 °F 48% 29.87 in 10.0 mi NNW 25.3 mph 33.4 mph N/A   Mostly Cloudy
11:55 AM 39.2 °F 27.6 °F 19.4 °F 45% 29.88 in 10.0 mi NNW 28.8 mph 38.0 mph N/A   Mostly Cloudy
12:15 PM 37.4 °F 25.2 °F 17.6 °F 45% 29.89 in 10.0 mi NNW 28.8 mph 40.3 mph N/A   Scattered Clouds
12:35 PM 37.4 °F 25.9 °F 17.6 °F 45% 29.90 in 10.0 mi NNW 25.3 mph 34.5 mph N/A   Scattered Clouds
12:55 PM 39.2 °F 27.8 °F 17.6 °F 42% 29.90 in 10.0 mi NNW 27.6 mph 34.5 mph N/A   Partly Cloudy
1:15 PM 39.2 °F 27.0 °F 17.6 °F 42% 29.90 in 10.0 mi NNW 32.2 mph 40.3 mph N/A   Scattered Clouds
1:35 PM 37.4 °F 26.1 °F 17.6 °F 45% 29.90 in 10.0 mi NNW 24.2 mph 34.5 mph N/A   Mostly Cloudy
1:55 PM 37.4 °F 25.6 °F 15.8 °F 41% 29.91 in 10.0 mi NW 26.5 mph 38.0 mph N/A   Mostly Cloudy
2:15 PM 39.2 °F 27.6 °F 17.6 °F 42% 29.91 in 10.0 mi NW 28.8 mph 34.5 mph N/A   Mostly Cloudy
2:35 PM 39.2 °F 28.5 °F 15.8 °F 39% 29.92 in 10.0 mi NNW 24.2 mph 36.8 mph N/A   Partly Cloudy
2:55 PM 39.2 °F 27.6 °F 17.6 °F 42% 29.92 in 10.0 mi NNW 28.8 mph 36.8 mph N/A   Partly Cloudy
3:15 PM 37.4 °F 26.4 °F 15.8 °F 41% 29.92 in 10.0 mi NNW 23.0 mph 33.4 mph N/A   Scattered Clouds
3:35 PM 39.2 °F 28.3 °F 15.8 °F 39% 29.93 in 10.0 mi NNW 25.3 mph 31.1 mph N/A   Mostly Cloudy
3:55 PM 39.2 °F 28.5 °F 17.6 °F 42% 29.94 in 10.0 mi NW 24.2 mph 35.7 mph N/A   Scattered Clouds
4:15 PM 39.2 °F 28.3 °F 15.8 °F 39% 29.95 in 10.0 mi NW 25.3 mph 36.8 mph N/A   Mostly Cloudy
4:35 PM 37.4 °F 25.9 °F 15.8 °F 41% 29.96 in 10.0 mi NW 25.3 mph 33.4 mph N/A   Partly Cloudy
4:55 PM 37.4 °F 25.4 °F 15.8 °F 41% 29.97 in 10.0 mi NNW 27.6 mph 31.1 mph N/A   Partly Cloudy
5:15 PM 35.6 °F 24.2 °F 15.8 °F 44% 29.98 in 10.0 mi NNW 21.9 mph 32.2 mph N/A   Clear
5:35 PM 35.6 °F 24.2 °F 15.8 °F 44% 29.98 in 10.0 mi NNW 21.9 mph 25.3 mph N/A   Clear
5:55 PM 33.8 °F 23.5 °F 15.8 °F 48% 29.98 in 10.0 mi NNW 16.1 mph - N/A   Clear
6:15 PM 33.8 °F 25.3 °F 15.8 °F 48% 30.00 in 10.0 mi NNW 11.5 mph - N/A   Clear
6:35 PM 30.2 °F 21.9 °F 15.8 °F 55% 30.01 in 10.0 mi NNW 9.2 mph - N/A   Clear
6:55 PM 28.4 °F 20.4 °F 15.8 °F 59% 30.01 in 10.0 mi NNW 8.1 mph - N/A   Clear
7:15 PM 28.4 °F 21.2 °F 15.8 °F 59% 30.02 in 10.0 mi NNW 6.9 mph - N/A   Clear
7:35 PM 28.4 °F 21.2 °F 15.8 °F 59% 30.02 in 10.0 mi NNW 6.9 mph - N/A   Clear
7:55 PM 26.6 °F 20.0 °F 14.0 °F 59% 30.03 in 10.0 mi NW 5.8 mph - N/A   Clear
8:15 PM 24.8 °F 17.9 °F 12.2 °F 59% 30.03 in 10.0 mi NW 5.8 mph - N/A   Scattered Clouds
8:35 PM 24.8 °F 17.9 °F 15.8 °F 69% 30.03 in 10.0 mi NW 5.8 mph - N/A   Mostly Cloudy
8:55 PM 24.8 °F 17.9 °F 15.8 °F 69% 30.04 in 10.0 mi NW 5.8 mph - N/A   Overcast
9:15 PM 24.8 °F 16.9 °F 15.8 °F 69% 30.05 in 10.0 mi WNW 6.9 mph - N/A   Overcast
9:35 PM 24.8 °F 15.3 °F 15.8 °F 69% 30.06 in 10.0 mi West 9.2 mph - N/A   Partly Cloudy
9:55 PM 21.2 °F 11.7 °F 14.0 °F 74% 30.06 in 10.0 mi West 8.1 mph - N/A   Clear
10:15 PM 23.0 °F 13.9 °F 15.8 °F 74% 30.07 in 10.0 mi WNW 8.1 mph - N/A   Clear
10:35 PM 21.2 °F 10.9 °F 14.0 °F 74% 30.08 in 10.0 mi WNW 9.2 mph - N/A   Scattered Clouds
10:55 PM 23.0 °F 13.9 °F 14.0 °F 68% 30.09 in 10.0 mi WNW 8.1 mph - N/A   Mostly Cloudy
11:15 PM 24.8 °F 15.3 °F 15.8 °F 69% 30.10 in 10.0 mi WNW 9.2 mph - N/A   Scattered Clouds
11:35 PM 24.8 °F 12.4 °F 15.8 °F 69% 30.10 in 10.0 mi NW 15.0 mph - N/A   Mostly Cloudy
11:55 PM 26.6 °F 14.3 °F 15.8 °F 64% 30.11 in 10.0 mi NW 16.1 mph 21.9 mph N/A   Scattered Clouds